[[{"header":{"parameterUnit":"m.s-1","parameterCategory":1,"la1":30.2991,"la2":30.254,"lo1":-89.0895,"lo2":-89.0444,"dy":0.0017,"dx":0.0017,"nx":28,"ny":28,"refTime":"2025-06-07T03:00:00:Z","depth":0,"parameterNumber":2,"parameterNumberName":"U-component_of_WINDS"},"data":[0,0,0,0,0,0,0,0,0,0,0,0,0,0,0,0,0,0,0,0,0,0,0,0,0,0,0,0,0,0,0,0,0,0,0,0,0,0,0,0,0,0,0,0,0,0,0,0,0,0,0,0,0,0,0,0,0,0,2.3981,2.3984,0,2.4209,2.4212,2.4214,2.4239,2.4237,2.4235,2.4233,2.4472,2.448,2.4489,0,0,0,0,0,0,0,0,0,0,0,0,0,2.3575,2.3582,2.3981,2.3984,2.3987,2.4209,2.4212,2.4215,2.424,2.4237,2.4234,2.4232,2.4469,2.4479,2.449,0,0,0,0,0,0,0,0,0,0,0,0,0,2.3772,2.3584,2.398,2.4026,2.4032,2.4208,2.4212,2.4216,2.424,2.4237,2.4233,2.423,2.4466,2.4478,2.4491,2.464,0,0,2.453,2.4536,0,0,0,0,0,0,0,0,2.3761,2.3787,2.4016,2.4023,2.403,2.4192,2.4156,2.4358,2.4241,2.4161,2.4233,2.4229,2.4382,2.4402,2.4452,2.4651,2.4661,2.4531,2.4539,2.4545,2.4548,0,0,0,0,0,0,0,2.3747,2.3777,2.4071,2.4019,2.4028,2.4037,2.4061,2.4195,2.4289,2.4168,2.417,2.4197,2.4385,2.444,2.4458,2.4665,2.4531,2.4542,2.455,2.4555,2.5001,2.5005,0,0,0,0,0,0,2.3724,2.3766,2.4064,2.4078,2.3884,2.4047,2.4074,2.4144,2.4287,2.4306,2.42,2.4197,2.442,2.4443,2.4467,2.4652,2.4544,2.4556,2.4564,2.4997,2.5002,2.5006,0,0,0,0,0,0,2.3715,2.375,2.4055,2.3923,2.3962,2.4058,2.4136,2.415,2.4204,2.4311,2.4328,2.4237,2.4418,2.4449,2.4597,2.4661,2.4562,2.4574,2.4992,2.4998,2.5004,2.5023,0,0,0,0,0,0,2.3703,2.3747,2.3802,2.3924,2.3969,2.4179,2.414,2.4157,2.4226,2.4225,2.4351,2.4369,2.4417,2.4578,2.461,2.4677,2.4584,2.4986,2.4994,2.5002,2.5017,2.5029,2.5039,0,0,0,0,0,2.3689,2.3799,2.3805,2.3841,2.404,2.4182,2.4209,2.4261,2.4231,2.4289,2.4358,2.4365,2.4648,2.4593,2.4629,2.4701,2.4983,2.4992,2.5001,2.5012,2.5027,2.5039,0,0,0,0,0,0,2.3684,2.3816,2.3824,2.3976,2.4068,2.4186,2.4261,2.4274,2.4378,2.4373,2.4435,2.4463,2.461,2.467,2.4605,2.4854,2.4813,2.483,2.4809,2.4824,2.4835,2.4817,2.4595,0,0,0,0,0,2.37,2.3803,2.3913,2.4038,2.4083,2.4164,2.4228,2.426,2.4359,2.4398,2.4478,2.4575,2.4686,2.4758,2.4866,2.5026,2.5056,2.5094,2.5105,2.5113,2.5128,2.522,2.5239,2.5037,2.5037,2.5036,0,0,2.3736,2.3821,2.3882,2.4039,2.4114,2.4221,2.4196,2.4311,2.4392,2.4416,2.4561,2.4623,2.4736,2.4891,2.4964,2.4946,2.519,2.5125,2.5131,2.5141,2.5231,2.5251,2.5267,2.5043,2.5042,2.5041,0,0,2.3856,2.3929,2.4041,2.4117,2.4231,2.4284,2.4311,2.4429,2.4471,2.4617,2.4638,2.4737,2.4927,2.5007,2.5072,2.5226,2.5238,2.526,2.5318,2.5407,2.5423,2.5438,2.5495,2.5514,2.5274,2.5274,2.5274,0,2.3886,2.4046,2.4098,2.4212,2.4282,2.4308,2.4425,2.4496,2.464,2.4689,2.4667,2.4907,2.4985,2.5161,2.5198,2.525,2.5285,2.5246,2.5416,2.5431,2.5446,2.5501,2.5522,2.5276,2.5275,2.5275,2.5275,0,2.4079,2.4191,2.4269,2.4406,2.4484,2.4599,2.4671,2.4745,2.4772,2.4829,2.4979,2.5073,2.5202,2.5246,2.5273,2.5427,2.5413,2.5403,2.5363,2.5466,2.5519,2.5541,2.5279,2.5278,2.5277,2.5277,0,0,2.4201,2.4366,2.4394,2.4458,2.4587,2.4675,2.4793,2.4918,2.4981,2.508,2.5183,2.5344,2.5336,2.541,2.5447,2.5525,2.5644,2.5506,2.551,2.553,2.5823,2.583,2.5854,2.5652,2.5656,2.566,2.5814,0,2.4336,2.4544,2.4596,2.4774,2.488,2.4908,2.5011,2.5102,2.5159,2.526,2.5324,2.5437,2.5417,2.5463,2.5541,2.5613,2.5704,2.5602,2.5751,2.5755,2.5722,2.5881,2.5889,2.603,2.5835,2.5838,2.5841,0,2.4521,2.4624,2.4813,2.493,2.4977,2.5068,2.5188,2.5282,2.5388,2.5425,2.5509,2.5539,2.5666,2.5619,2.5797,2.5726,2.5791,2.5835,2.5842,2.5859,2.5805,2.5904,2.6076,2.6097,2.5874,2.5871,2.5869,0,2.4594,2.4779,2.4917,2.497,2.511,2.5174,2.5236,2.5338,2.5411,2.5517,2.5566,2.5685,2.5752,2.5845,2.5908,2.5867,2.6081,2.6039,2.6117,2.6116,2.6161,2.6158,2.6347,2.62,2.62,2.62,2.6199,0,2.474,2.4855,2.4951,2.5036,2.5167,2.5227,2.5356,2.5418,2.551,2.561,2.5642,2.5735,2.5811,2.5916,2.5966,2.6107,2.6136,2.6171,2.6184,2.6169,2.6165,2.6213,2.6205,2.6205,2.6204,2.6203,2.6202,0,2.4842,2.4911,2.5063,2.5184,2.5217,2.5308,2.5413,2.5498,2.5557,2.5683,2.5716,2.5809,2.5934,2.6006,2.6164,2.6198,2.6355,2.6362,2.6319,2.6325,2.6399,2.6392,2.6627,2.6662,2.649,2.6492,2.6493,0,2.4932,2.5021,2.5151,2.522,2.5282,2.5392,2.5466,2.553,2.5607,2.5736,2.5807,2.5933,2.6038,2.6238,2.6321,2.6443,2.6454,2.6528,2.6473,2.6456,2.6458,2.6452,2.6463,2.6538,2.6539,2.6541,2.6542,0,2.5084,2.5114,2.5219,2.5338,2.5425,2.5522,2.5618,2.5673,2.5753,2.5839,2.5967,2.6048,2.621,2.6337,2.6466,2.6532,2.6552,2.6559,2.6584,2.657,2.6542,2.6561,2.6346,2.6553,2.6552,2.6551,2.655,2.655,2.5184,2.5265,2.537,2.5488,2.5567,2.5656,2.5743,2.5813,2.592,2.6056,2.6087,2.6223,2.633,2.6506,2.6576,2.6685,2.6672,2.6707,2.6716,2.6725,2.6728,2.6524,2.6708,2.6708,2.6708,2.6708,2.6707,0,2.5339,2.5408,2.5515,2.5649,2.5742,2.5751,2.5859,2.5937,2.6055,2.6153,2.6256,2.6404,2.6528,2.6622,2.6749,2.6819,2.6831,2.685,2.6846,2.6862,2.6731,2.6698,2.6838,2.6838,2.6838,2.6838,2.6838,2.6838,2.543,2.557,2.5613,2.5794,2.5863,2.5995,2.6056,2.614,2.6219,2.6383,2.6486,2.6545,2.6643,2.6778,2.6893,2.6918,2.6964,2.6982,2.7009,2.6885,2.6871,2.6857,2.6826,2.6992,2.6992,2.7131,2.7132,2.7133]},{"header":{"parameterUnit":"m.s-1","parameterCategory":1,"la1":30.2991,"la2":30.254,"lo1":-89.0895,"lo2":-89.0444,"dy":0.0017,"dx":0.0017,"nx":28,"ny":28,"refTime":"2025-06-07T03:00:00:Z","depth":0,"parameterNumber":3,"parameterNumberName":"V-component_of_WINDS"},"data":[0,0,0,0,0,0,0,0,0,0,0,0,0,0,0,0,0,0,0,0,0,0,0,0,0,0,0,0,0,0,0,0,0,0,0,0,0,0,0,0,0,0,0,0,0,0,0,0,0,0,0,0,0,0,0,0,0,0,6.0667,6.0668,0,6.0824,6.0826,6.0828,6.0813,6.0811,6.0809,6.0806,6.0959,6.0965,6.0971,0,0,0,0,0,0,0,0,0,0,0,0,0,6.0345,6.0351,6.0666,6.0668,6.067,6.0824,6.0826,6.0828,6.0814,6.0811,6.0808,6.0805,6.0957,6.0964,6.0972,0,0,0,0,0,0,0,0,0,0,0,0,0,6.0492,6.0353,6.0666,6.0682,6.0685,6.0823,6.0826,6.0829,6.0814,6.0811,6.0807,6.0804,6.0954,6.0963,6.0973,6.1103,0,0,6.1002,6.1006,0,0,0,0,0,0,0,0,6.0483,6.0503,6.0678,6.0681,6.0685,6.0796,6.0768,6.092,6.0815,6.0765,6.0806,6.0802,6.0907,6.092,6.0957,6.111,6.1116,6.1002,6.1008,6.1012,6.1015,0,0,0,0,0,0,0,6.0473,6.0496,6.0728,6.068,6.0685,6.0679,6.0695,6.0797,6.0854,6.0769,6.0769,6.0788,6.0908,6.0948,6.096,6.1119,6.1002,6.101,6.1016,6.102,6.1386,6.139,0,0,0,0,0,0,6.046,6.0488,6.0723,6.0733,6.0573,6.0687,6.0706,6.0763,6.0853,6.0863,6.0791,6.0787,6.0934,6.0949,6.0966,6.1125,6.1012,6.1021,6.1026,6.1382,6.1387,6.1391,0,0,0,0,0,0,6.0454,6.0482,6.0717,6.0611,6.064,6.0697,6.0761,6.0768,6.0809,6.0869,6.0878,6.0822,6.0931,6.0952,6.107,6.113,6.1025,6.1034,6.1377,6.1384,6.1389,6.1444,0,0,0,0,0,0,6.0444,6.0479,6.0531,6.0612,6.0646,6.0821,6.0765,6.0774,6.0826,6.0822,6.0901,6.091,6.093,6.1056,6.1079,6.1141,6.1041,6.1372,6.138,6.1387,6.1437,6.1451,6.1463,0,0,0,0,0,6.0433,6.0538,6.0534,6.0562,6.0713,6.0825,6.0844,6.0867,6.0831,6.0883,6.0921,6.0908,6.1119,6.1068,6.1094,6.116,6.1368,6.1378,6.1387,6.1431,6.1448,6.1463,0,0,0,0,0,0,6.0459,6.0549,6.0545,6.068,6.0745,6.0822,6.0888,6.0884,6.0959,6.0952,6.0975,6.0992,6.1111,6.1146,6.1087,6.129,6.1239,6.1253,6.1263,6.128,6.1293,6.1282,6.1049,0,0,0,0,0,6.0481,6.0568,6.064,6.0752,6.0785,6.0831,6.088,6.0893,6.096,6.0987,6.1034,6.1097,6.1178,6.1231,6.1308,6.1441,6.1458,6.1499,6.1512,6.1523,6.1536,6.1609,6.1629,6.1422,6.1421,6.1421,0,0,6.0527,6.0586,6.0639,6.0759,6.0811,6.0897,6.0854,6.0947,6.1011,6.1,6.1115,6.1152,6.1223,6.1349,6.1407,6.1383,6.1596,6.1535,6.1542,6.155,6.1621,6.164,6.1658,6.1428,6.1427,6.1426,0,0,6.0654,6.0708,6.0808,6.0862,6.0942,6.0972,6.0996,6.1074,6.1099,6.1216,6.1209,6.1284,6.1422,6.1474,6.1519,6.1667,6.1657,6.1691,6.176,6.1831,6.1848,6.1862,6.1916,6.1935,6.1703,6.1703,6.1703,0,6.07,6.0834,6.0859,6.0955,6.1007,6.1004,6.1105,6.1154,6.1254,6.1289,6.1261,6.1436,6.1484,6.1623,6.1659,6.1695,6.1722,6.1683,6.1844,6.1859,6.1873,6.1924,6.1944,6.1707,6.1707,6.1706,6.1706,0,6.0886,6.0978,6.1049,6.115,6.121,6.1307,6.1345,6.1403,6.141,6.1442,6.156,6.1617,6.1707,6.174,6.1747,6.188,6.1863,6.1839,6.1788,6.1896,6.1944,6.1964,6.1712,6.1711,6.171,6.1709,0,0,6.1035,6.115,6.1176,6.1222,6.1311,6.1382,6.1477,6.1569,6.1618,6.1686,6.1767,6.1885,6.1864,6.1914,6.1926,6.1989,6.2104,6.1957,6.1959,6.1984,6.2255,6.2273,6.2296,6.2097,6.2101,6.2104,6.2249,0,6.1172,6.1347,6.1373,6.1526,6.1611,6.161,6.1693,6.1755,6.1788,6.1863,6.1896,6.1981,6.1946,6.1977,6.2039,6.2077,6.2159,6.2066,6.2171,6.2175,6.2155,6.2321,6.2341,6.2475,6.2268,6.2271,6.2274,0,6.1357,6.1435,6.1597,6.1676,6.1713,6.1788,6.1874,6.1946,6.2015,6.2034,6.2092,6.2097,6.2194,6.2138,6.2272,6.2209,6.2252,6.2277,6.2283,6.2295,6.2232,6.2338,6.2518,6.2539,6.2304,6.2301,6.2299,0,6.1451,6.1596,6.1713,6.1752,6.1846,6.1899,6.194,6.2006,6.206,6.2133,6.2168,6.225,6.2296,6.2359,6.2385,6.2341,6.2517,6.2463,6.2535,6.2534,6.2573,6.257,6.2764,6.2599,6.2599,6.2598,6.2598,0,6.1603,6.1702,6.1757,6.1828,6.1939,6.1967,6.2075,6.2113,6.2173,6.225,6.2251,6.2323,6.2353,6.2429,6.2449,6.2557,6.2577,6.2594,6.2598,6.2595,6.2593,6.2625,6.2617,6.2604,6.2603,6.2601,6.2601,0,6.1727,6.1768,6.1895,6.1974,6.1997,6.2075,6.2142,6.221,6.2242,6.234,6.2364,6.2413,6.2503,6.2535,6.2642,6.2656,6.2782,6.2777,6.276,6.2761,6.2832,6.2825,6.3053,6.3085,6.2898,6.29,6.2901,0,6.1823,6.19,6.1989,6.2043,6.2087,6.2172,6.2228,6.2257,6.2314,6.24,6.2458,6.2547,6.2621,6.2764,6.2807,6.2889,6.2888,6.2962,6.29,6.2895,6.2891,6.2887,6.2895,6.2974,6.2976,6.2978,6.2979,0,6.1988,6.2004,6.2086,6.2176,6.2243,6.2313,6.2381,6.2424,6.2463,6.2527,6.2621,6.2678,6.279,6.2878,6.2963,6.3002,6.2997,6.2998,6.3019,6.3017,6.3005,6.3014,6.2793,6.2993,6.2992,6.2991,6.299,6.2989,6.2101,6.2171,6.2245,6.2336,6.2391,6.2455,6.2524,6.2566,6.2646,6.2742,6.2752,6.2853,6.292,6.3034,6.3076,6.3154,6.3133,6.3163,6.3171,6.3179,6.3185,6.2991,6.3169,6.3168,6.3168,6.3168,6.3167,0,6.2268,6.2316,6.24,6.2497,6.2569,6.256,6.2636,6.2695,6.2785,6.2849,6.2923,6.303,6.3116,6.3167,6.3253,6.3305,6.3305,6.3327,6.3324,6.3333,6.3198,6.3172,6.3326,6.3326,6.3326,6.3326,6.3326,6.3326,6.2363,6.248,6.2506,6.265,6.2696,6.2798,6.2841,6.29,6.2952,6.3073,6.3146,6.318,6.3238,6.3329,6.3407,6.342,6.3451,6.3476,6.3486,6.3359,6.3343,6.3327,6.3303,6.3482,6.3482,6.3616,6.3617,6.3618]}]]